Showing default

NETSAT-3, 46505

Orbit data source: Space-Track

NETSAT-3, 46505 is a payload satellite owned by ZfT (DE) in SSO that was launched on Mon, 28 Sep 2020 UTC via a SOYUZ-2-1B launch vehicle from the Plesetsk Missile And Space Complex (PKMTR). Payload-class satellites include a variety of spacecraft equipped with specific instruments for various scientific and technological missions. These include communications satellites like Starlink; space stations such as the ISS; scientific satellites like the Hubble; Earth observation satellites from companies like Planet Labs, Umbra, and HawkEye 360; GPS; miniature CubeSats for education and research; and military/defense satellites.

Loading next visibility...
Identifier
46505, 2020-068V
Orbit
SSO
Country
Flag of DEDE / GER
Related business
Manufacturer
ZfT
Mission
Operational Commercial Technology
Bus & Motor
CUBESAT 3U, Unknown motor
Mass
4 kg wet, 4 kg dry
Launch date (UTC)
2020-09-28 (5 years ago)
Launch vehicle
SOYUZ-2-1B
Launch site
Plesetsk Missile And Space Complex (PKMTR)
Object type
Payload
Rocket body
Debris
Shape & HBR
Box, Unknown HBR
Radar Cross Section
0.035 m², Small (<0.1 m²)

Expand to show TLE details & history
Last TLE update: 11 hours ago

TLE from 11 hours ago
0 NETSAT-3
1 46505U 20068V   26034.49498742  .00019367  00000-0  52713-3 0  9995
2 46505  97.8653  30.8999 0008320  94.1916 266.0279 15.37532924295101
Epoch: 2026-02-03T11:52Z
TLE epoch observation values (Epoch: 2026-02-03T11:52:46.913Z)
Latitude
0.00007°
Longitude
79.02931°
Altitude
456.906 km
Speed
7.638 km/s
True Right ascension
02h 03m 35s
True Declination
0° 00' 00"
Sunlit
Object was in daylight at epoch
Visualization orbit readout
Latitude
Unknown
Longitude
Unknown
Altitude
Unknown
Speed
Unknown
Apparent Right ascension
Unknown
Apparent Declination
Unknown
Sunlit
N/A
Visualization observer readout
Local Sidereal Time
00:50:55
Azimuth
Unknown
Elevation
Unknown
Doppler factor
Unknown
Orbital elements
Apogee altitude
456.052 km
Perigee altitude
444.689 km
Semi-major axis
6,828.507 km
Eccentricity
0.00083
Inclination
97.8653°
RAAN
30.8999°
Arg. of periapsis
94.1916°
True anomaly
265.9328°
Mean anomaly
266.0279°
Eccentric anomaly
265.98035°
Mean motion
3.8464 °/min
Orbital period
93.59 mins
BSTAR
0.00052713
Loading maneuver chart data...
Computing Atmospheric mass density...
Loading historical data...
Loading historical data...
Loading historical data...
Loading historical data...
Loading historical data...
Loading historical data...
Loading historical data...

Documentation

Showing up to 5 results
|